Hourly Data Report for September 16, 2017

All times are specified in Local Standard Time (LST). Add 1 hour to adjust for Daylight Saving Time where and when it is observed.

ARVIAT A
NUNAVUT

61°05'38.000" N
94°04'18.000" W
10.40 m
2300427
71174
YEK

Download Data

Hourly Data (September 2017)
Hourly Data Report for September 16, 2017
Temp Definition
°C
Dew Point Temp Definition
°C
Rel Hum Definition
%
Wind Dir Definition
10's deg

Wind Spd Definition
km/h
Visibility Definition
km
Stn Press Definition
kPa
Hmdx Definition


Wind Chill Definition


Weather Definition


TIME
00:00 Legend Double Dagger 8.6 5.3 80 25 22 16.1 101.78     LegendNANA
01:00 Legend Double Dagger 8.5 5.3 80 25 24 16.1 101.77     LegendNANA
02:00 Legend Double Dagger 8.1 5.1 82 26 22 16.1 101.76     LegendNANA
03:00 Legend Double Dagger 8.1 5.1 81 26 22 16.1 101.77     LegendNANA
04:00 Legend Double Dagger 7.9 5.2 83 26 22 16.1 101.78     LegendNANA
05:00 Legend Double Dagger 8.0 5.1 82 27 17 16.1 101.78     LegendNANA
06:00 Legend Double Dagger 8.0 5.3 83 26 21 16.1 101.80     LegendNANA
07:00 Legend Double Dagger 8.0 5.5 84 27 18 16.1 101.82     LegendNANA
08:00 Legend Double Dagger 8.6 5.9 83 30 22 16.1 101.86     LegendNANA
09:00 Legend Double Dagger 9.4 6.2 80 32 24 16.1 101.89     LegendNANA
10:00 Legend Double Dagger 10.3 7.0 80 33 21 16.1 101.92     LegendNANA
11:00 Legend Double Dagger 11.1 7.4 78 32 17 16.1 101.95     LegendNANA
12:00 Legend Double Dagger 11.0 7.1 77 33 24 16.1 101.97     LegendNANA
13:00 Legend Double Dagger 11.2 7.5 78 33 15 16.1 101.99     LegendNANA
14:00 Legend Double Dagger 12.0 7.3 73 33 17 16.1 102.01     LegendNANA
15:00 Legend Double Dagger 12.4 7.4 71 32 15 16.1 102.00     LegendNANA
16:00 Legend Double Dagger 12.6 7.5 71 33 17 16.1 102.01     LegendNANA
17:00 Legend Double Dagger 12.5 7.4 71 35 17 16.1 102.02     LegendNANA
18:00 Legend Double Dagger 10.3 7.7 84 10 11 16.1 102.05     LegendNANA
19:00 Legend Double Dagger 8.4 7.0 91 16 9 16.1 102.07     LegendNANA
20:00 Legend Double Dagger 7.1 6.4 95 18 13 16.1 102.08     LegendNANA
21:00 Legend Double Dagger 6.8 6.2 96 18 9 16.1 102.10     LegendNANA
22:00 Legend Double Dagger 5.8 5.4 97 18 11 16.1 102.10     LegendNANA
23:00 Legend Double Dagger 5.8 5.5 98 17 8 16.1 102.09     LegendNANA

Notes on Data Quality.

Legend

  • E = Estimated
  • M = Missing
  • NA = Not Available
  • ‡ = Partner data that is not subject to review by the National Climate Archives
Date modified: